| time (UTC) | temp F | wind direction | speed MPH | gust MPH | rain 1hr in | rain 24hr in | rain mn in | humidity % | barometer mb |
| 20260831224842 | 82 | 32 | 2.0 | 4.0 | 0.00 | 0.00 | 0.00 | 78 | 1017.4 |
| 20260831223849 | 82 | 32 | 2.0 | 3.0 | 0.00 | 0.00 | 0.00 | 78 | 1017.3 |
| 20260831222846 | 82 | 32 | 0.0 | 0.0 | 0.00 | 0.00 | 0.00 | 77 | 1017.4 |
| 20260831221850 | 82 | 32 | 0.0 | 0.0 | 0.00 | 0.00 | 0.00 | 77 | 1017.4 |
| 20260831220845 | 82 | 32 | 0.0 | 0.0 | 0.00 | 0.00 | 0.00 | 77 | 1017.5 |
| 20260831215841 | 82 | 32 | 0.0 | 0.0 | 0.00 | 0.00 | 0.00 | 77 | 1017.6 |
| 20260831214846 | 82 | 32 | 0.0 | 0.0 | 0.00 | 0.00 | 0.00 | 77 | 1017.6 |
| 20260831213843 | 83 | 32 | 0.0 | 0.0 | 0.00 | 0.00 | 0.00 | 77 | 1017.6 |
| 20260831212839 | 83 | 32 | 0.0 | 0.0 | 0.00 | 0.00 | 0.00 | 77 | 1017.5 |
| 20260831210837 | 83 | 32 | 0.0 | 0.0 | 0.00 | 0.00 | 0.00 | 77 | 1017.4 |
| 20260831205837 | 83 | 32 | 0.0 | 0.0 | 0.00 | 0.00 | 0.00 | 77 | 1017.3 |
| 20260831203840 | 83 | 32 | 0.0 | 0.0 | 0.00 | 0.00 | 0.00 | 77 | 1017.3 |
| 20260831201834 | 83 | 32 | 0.0 | 0.0 | 0.00 | 0.00 | 0.00 | 77 | 1017.2 |
| 20260831200834 | 83 | 32 | 0.0 | 0.0 | 0.00 | 0.00 | 0.00 | 77 | 1017.1 |
| 20260831195837 | 83 | 32 | 0.0 | 0.0 | 0.00 | 0.00 | 0.00 | 77 | 1017.1 |
| 20260831194834 | 83 | 32 | 0.0 | 2.0 | 0.00 | 0.00 | 0.00 | 77 | 1017.1 |
| 20260831193834 | 83 | 32 | 1.0 | 3.0 | 0.00 | 0.00 | 0.00 | 77 | 1017.1 |
| 20260831192835 | 83 | 32 | 2.0 | 3.0 | 0.00 | 0.00 | 0.00 | 77 | 1017.0 |
| 20260831191834 | 83 | 32 | 1.0 | 3.0 | 0.00 | 0.00 | 0.00 | 77 | 1016.9 |
| 20260831190833 | 83 | 32 | 2.0 | 3.0 | 0.00 | 0.00 | 0.00 | 77 | 1016.9 |
| 20260831185834 | 83 | 32 | 1.0 | 3.0 | 0.00 | 0.00 | 0.00 | 76 | 1017.0 |
| 20260831184838 | 83 | 32 | 2.0 | 3.0 | 0.00 | 0.00 | 0.00 | 76 | 1016.9 |
| 20260831183834 | 83 | 32 | 3.0 | 5.0 | 0.00 | 0.00 | 0.00 | 76 | 1016.9 |
| 20260831182833 | 84 | 31 | 3.0 | 5.0 | 0.00 | 0.00 | 0.00 | 76 | 1016.8 |
| 20260831181832 | 84 | 43 | 3.0 | 6.0 | 0.00 | 0.00 | 0.00 | 76 | 1016.6 |
| 20260831180829 | 84 | 355 | 2.0 | 4.0 | 0.00 | 0.00 | 0.00 | 76 | 1016.6 |
| 20260831175830 | 84 | 51 | 3.0 | 5.0 | 0.00 | 0.00 | 0.00 | 76 | 1016.6 |
| 20260831174829 | 84 | 30 | 3.0 | 7.0 | 0.00 | 0.00 | 0.00 | 76 | 1016.6 |
| 20260831173832 | 84 | 30 | 3.0 | 8.0 | 0.00 | 0.00 | 0.00 | 75 | 1016.6 |
| 20260831172831 | 85 | 9 | 5.0 | 8.0 | 0.00 | 0.00 | 0.00 | 75 | 1016.5 |
| 20260831171828 | 85 | 5 | 4.0 | 9.0 | 0.00 | 0.00 | 0.00 | 75 | 1016.7 |
| 20260831170827 | 85 | 17 | 4.0 | 9.0 | 0.00 | 0.00 | 0.00 | 74 | 1016.7 |
| 20260831164829 | 86 | 12 | 5.0 | 8.0 | 0.00 | 0.00 | 0.00 | 73 | 1016.7 |
| 20260831163831 | 86 | 26 | 4.0 | 8.0 | 0.00 | 0.00 | 0.00 | 71 | 1016.7 |
| 20260831162829 | 86 | 19 | 4.0 | 10.0 | 0.00 | 0.00 | 0.00 | 71 | 1016.7 |
| 20260831161829 | 87 | 40 | 5.0 | 10.0 | 0.00 | 0.00 | 0.00 | 71 | 1016.7 |
| 20260831160828 | 87 | 56 | 5.0 | 9.0 | 0.00 | 0.00 | 0.00 | 70 | 1016.7 |
| 20260831155825 | 87 | 338 | 5.0 | 9.0 | 0.00 | 0.00 | 0.00 | 70 | 1016.6 |
| 20260831154826 | 87 | 14 | 4.0 | 10.0 | 0.00 | 0.00 | 0.00 | 70 | 1016.6 |
| 20260831153823 | 87 | 40 | 5.0 | 10.0 | 0.00 | 0.00 | 0.00 | 70 | 1016.6 |
| 20260831152829 | 87 | 342 | 5.0 | 11.0 | 0.00 | 0.00 | 0.00 | 69 | 1016.5 |
| 20260831150828 | 87 | 35 | 5.0 | 12.0 | 0.00 | 0.00 | 0.00 | 68 | 1016.4 |
| 20260831144821 | 87 | 348 | 7.0 | 13.0 | 0.00 | 0.00 | 0.00 | 67 | 1016.4 |
| 20260831143827 | 87 | 9 | 7.0 | 16.0 | 0.00 | 0.00 | 0.00 | 67 | 1016.3 |
| 20260831141820 | 87 | 71 | 7.0 | 13.0 | 0.00 | 0.00 | 0.00 | 62 | 1016.4 |
| 20260831140827 | 88 | 5 | 6.0 | 14.0 | 0.00 | 0.00 | 0.00 | 66 | 1016.4 |
| 20260831135819 | 88 | 340 | 8.0 | 14.0 | 0.00 | 0.00 | 0.00 | 64 | 1016.5 |
| 20260831133821 | 89 | 345 | 8.0 | 14.0 | 0.00 | 0.00 | 0.00 | 64 | 1016.5 |
| 20260831132822 | 89 | 346 | 6.0 | 12.0 | 0.00 | 0.00 | 0.00 | 64 | 1016.5 |
| 20260831131822 | 89 | 12 | 6.0 | 12.0 | 0.00 | 0.00 | 0.00 | 64 | 1016.6 |
| 20260831130819 | 89 | 355 | 7.0 | 11.0 | 0.00 | 0.00 | 0.00 | 65 | 1016.7 |
| 20260831125819 | 89 | 355 | 6.0 | 12.0 | 0.00 | 0.00 | 0.00 | 63 | 1016.6 |
| 20260831124824 | 89 | 350 | 5.0 | 13.0 | 0.00 | 0.00 | 0.00 | 63 | 1016.6 |
| 20260831123823 | 89 | 355 | 7.0 | 12.0 | 0.00 | 0.00 | 0.00 | 57 | 1016.6 |
| 20260831122818 | 89 | 333 | 6.0 | 12.0 | 0.00 | 0.00 | 0.00 | 59 | 1016.6 |
| 20260831121822 | 89 | 355 | 6.0 | 11.0 | 0.00 | 0.00 | 0.00 | 60 | 1016.6 |
| 20260831115821 | 89 | 0 | 6.0 | 13.0 | 0.00 | 0.00 | 0.00 | 57 | 1016.6 |
| 20260831114820 | 90 | 5 | 6.0 | 12.0 | 0.00 | 0.00 | 0.00 | 55 | 1016.6 |
| 20260831113819 | 90 | 27 | 8.0 | 12.0 | 0.00 | 0.00 | 0.00 | 55 | 1016.6 |
| 20260831112823 | 90 | 346 | 8.0 | 13.0 | 0.00 | 0.00 | 0.00 | 55 | 1016.5 |
| 20260831111814 | 90 | 336 | 8.0 | 13.0 | 0.00 | 0.00 | 0.00 | 53 | 1016.6 |
| 20260831110819 | 90 | 30 | 7.0 | 12.0 | 0.00 | 0.00 | 0.00 | 53 | 1016.7 |
| 20260831105821 | 90 | 355 | 8.0 | 13.0 | 0.00 | 0.00 | 0.00 | 54 | 1016.6 |
| 20260831104815 | 90 | 355 | 8.0 | 13.0 | 0.00 | 0.00 | 0.00 | 55 | 1016.7 |
| 20260831103813 | 89 | 40 | 8.0 | 13.0 | 0.00 | 0.00 | 0.00 | 56 | 1016.7 |
| 20260831102813 | 89 | 346 | 9.0 | 13.0 | 0.00 | 0.00 | 0.00 | 58 | 1016.6 |
| 20260831101813 | 90 | 323 | 6.0 | 12.0 | 0.00 | 0.00 | 0.00 | 59 | 1016.7 |
| 20260831100813 | 90 | 355 | 7.0 | 12.0 | 0.00 | 0.00 | 0.00 | 55 | 1016.6 |
| 20260831095812 | 89 | 0 | 9.0 | 13.0 | 0.00 | 0.00 | 0.00 | 57 | 1016.7 |
| 20260831094816 | 90 | 0 | 7.0 | 12.0 | 0.00 | 0.00 | 0.00 | 56 | 1016.6 |
| 20260831093817 | 90 | 350 | 7.0 | 11.0 | 0.00 | 0.00 | 0.00 | 54 | 1016.5 |
| 20260831092822 | 90 | 17 | 5.0 | 10.0 | 0.00 | 0.00 | 0.00 | 51 | 1016.5 |
| 20260831091812 | 90 | 21 | 4.0 | 9.0 | 0.00 | 0.00 | 0.00 | 50 | 1016.5 |
| 20260831090812 | 90 | 5 | 4.0 | 8.0 | 0.00 | 0.00 | 0.00 | 49 | 1016.6 |
| 20260831085812 | 90 | 21 | 4.0 | 8.0 | 0.00 | 0.00 | 0.00 | 48 | 1016.5 |
| 20260831084811 | 90 | 338 | 2.0 | 5.0 | 0.00 | 0.00 | 0.00 | 48 | 1016.6 |
| 20260831083811 | 89 | 326 | 2.0 | 6.0 | 0.00 | 0.00 | 0.00 | 50 | 1016.5 |
| 20260831082811 | 89 | 34 | 4.0 | 8.0 | 0.00 | 0.00 | 0.00 | 50 | 1016.5 |
| 20260831081811 | 88 | 55 | 3.0 | 8.0 | 0.00 | 0.00 | 0.00 | 54 | 1016.5 |
| 20260831080815 | 88 | 336 | 3.0 | 8.0 | 0.00 | 0.00 | 0.00 | 54 | 1016.5 |
| 20260831074813 | 87 | 0 | 3.0 | 7.0 | 0.00 | 0.00 | 0.00 | 60 | 1016.4 |
| 20260831073805 | 87 | 5 | 4.0 | 7.0 | 0.00 | 0.00 | 0.00 | 63 | 1016.4 |
| 20260831071821 | 87 | 273 | 3.0 | 6.0 | 0.00 | 0.00 | 0.00 | 64 | 1016.3 |
| 20260831070818 | 86 | 302 | 2.0 | 8.0 | 0.00 | 0.00 | 0.00 | 66 | 1016.3 |
| 20260831065811 | 86 | 278 | 2.0 | 4.0 | 0.00 | 0.00 | 0.00 | 69 | 1016.2 |
| 20260831064805 | 85 | 252 | 2.0 | 5.0 | 0.00 | 0.00 | 0.00 | 72 | 1016.1 |
| 20260831063805 | 85 | 291 | 2.0 | 4.0 | 0.00 | 0.00 | 0.00 | 74 | 1016.2 |
| 20260831062810 | 85 | 278 | 3.0 | 6.0 | 0.00 | 0.00 | 0.00 | 75 | 1016.2 |
| 20260831061804 | 84 | 206 | 2.0 | 5.0 | 0.00 | 0.00 | 0.00 | 76 | 1016.0 |
| 20260831060804 | 84 | 250 | 3.0 | 6.0 | 0.00 | 0.00 | 0.00 | 77 | 1016.0 |
| 20260831055802 | 83 | 205 | 3.0 | 6.0 | 0.00 | 0.00 | 0.00 | 78 | 1016.0 |
| 20260831054807 | 83 | 222 | 4.0 | 6.0 | 0.00 | 0.00 | 0.00 | 79 | 1016.0 |
| 20260831053806 | 82 | 192 | 4.0 | 7.0 | 0.00 | 0.00 | 0.00 | 79 | 1015.9 |
| 20260831052804 | 82 | 240 | 3.0 | 5.0 | 0.00 | 0.00 | 0.00 | 80 | 1016.0 |
| 20260831051803 | 82 | 212 | 4.0 | 6.0 | 0.00 | 0.00 | 0.00 | 79 | 1016.3 |
| 20260831045802 | 82 | 230 | 2.0 | 6.0 | 0.00 | 0.00 | 0.00 | 78 | 1016.2 |
| 20260831044759 | 82 | 274 | 3.0 | 4.0 | 0.00 | 0.00 | 0.00 | 78 | 1016.1 |
| 20260831043756 | 82 | 286 | 0.0 | 3.0 | 0.00 | 0.00 | 0.00 | 78 | 1016.1 |
| 20260831042759 | 82 | 325 | 0.0 | 0.0 | 0.00 | 0.00 | 0.00 | 77 | 1016.0 |
| 20260831041758 | 83 | 325 | 2.0 | 5.0 | 0.00 | 0.00 | 0.00 | 77 | 1016.0 |
| 20260831035751 | 83 | 317 | 5.0 | 9.0 | 0.00 | 0.00 | 0.00 | 76 | 1015.9 |
| 20260831034753 | 83 | 311 | 4.0 | 8.0 | 0.00 | 0.00 | 0.00 | 77 | 1016.0 |
| 20260831032752 | 83 | 349 | 6.0 | 10.0 | 0.00 | 0.00 | 0.00 | 77 | 1016.2 |
| 20260831030753 | 83 | 335 | 7.0 | 13.0 | 0.00 | 0.00 | 0.00 | 76 | 1016.4 |
| 20260831025753 | 83 | 311 | 8.0 | 13.0 | 0.00 | 0.00 | 0.00 | 77 | 1016.5 |
| 20260831023753 | 83 | 301 | 9.0 | 15.0 | 0.00 | 0.00 | 0.00 | 77 | 1016.5 |
| 20260831022750 | 83 | 314 | 9.0 | 16.0 | 0.00 | 0.00 | 0.00 | 77 | 1016.5 |
| 20260831021750 | 83 | 338 | 8.0 | 12.0 | 0.00 | 0.00 | 0.00 | 77 | 1016.5 |
| 20260831020749 | 83 | 333 | 8.0 | 14.0 | 0.00 | 0.00 | 0.00 | 78 | 1016.6 |
| 20260831015753 | 83 | 332 | 8.0 | 13.0 | 0.00 | 0.00 | 0.00 | 78 | 1016.6 |
| 20260831014749 | 84 | 324 | 9.0 | 14.0 | 0.00 | 0.00 | 0.00 | 79 | 1016.5 |
| 20260831013753 | 84 | 339 | 10.0 | 16.0 | 0.00 | 0.00 | 0.00 | 78 | 1016.6 |
| 20260831012748 | 83 | 317 | 8.0 | 15.0 | 0.00 | 0.00 | 0.00 | 79 | 1016.6 |
| 20260831011751 | 84 | 345 | 6.0 | 12.0 | 0.00 | 0.00 | 0.00 | 80 | 1016.6 |
| 20260831010747 | 84 | 329 | 7.0 | 13.0 | 0.00 | 0.00 | 0.00 | 80 | 1016.6 |
| 20260831005747 | 84 | 323 | 8.0 | 12.0 | 0.00 | 0.00 | 0.00 | 80 | 1016.5 |
| 20260831004748 | 84 | 313 | 7.0 | 13.0 | 0.00 | 0.00 | 0.00 | 79 | 1016.5 |
| 20260831003752 | 84 | 320 | 9.0 | 14.0 | 0.00 | 0.00 | 0.00 | 79 | 1016.5 |
| 20260831002748 | 84 | 338 | 8.0 | 14.0 | 0.00 | 0.00 | 0.00 | 78 | 1016.7 |
| 20260831001747 | 84 | 318 | 6.0 | 10.0 | 0.00 | 0.00 | 0.00 | 79 | 1016.7 |
| 20260831000742 | 84 | 328 | 8.0 | 13.0 | 0.00 | 0.00 | 0.00 | 78 | 1016.8 |
| 20260830235742 | 84 | 311 | 8.0 | 14.0 | 0.00 | 0.00 | 0.00 | 78 | 1016.8 |
| 20260830234743 | 84 | 314 | 7.0 | 12.0 | 0.00 | 0.00 | 0.00 | 79 | 1016.9 |
| 20260830232739 | 84 | 341 | 7.0 | 12.0 | 0.00 | 0.00 | 0.00 | 81 | 1016.6 |
| 20260830231742 | 84 | 345 | 6.0 | 10.0 | 0.00 | 0.00 | 0.00 | 82 | 1016.6 |
| 20260830230742 | 84 | 321 | 8.0 | 14.0 | 0.00 | 0.00 | 0.00 | 82 | 1016.7 |
| 20260830225739 | 84 | 323 | 6.0 | 12.0 | 0.00 | 0.00 | 0.00 | 82 | 1016.7 |